Atlantic City, NJ

1:22 PM EDT on October 20, 2017 (GMT -0400)
Atlantic City International

Weather History for KACY - November, 2011

Change the Weather History Date:

Friday, November 11, 2011

  Actual Average Record
Temperature  
Mean Temperature 44 °F 48 °F  
Max Temperature 50 °F 58 °F 76 °F (1985)
Min Temperature 38 °F 39 °F 22 °F (1973)
Degree Days  
Heating Degree Days 21 17  
Month to date heating degree days 184 168  
Since 1 July heating degree days 444 526  
Cooling Degree Days 0 0  
Month to date cooling degree days 0 0  
Year to date cooling degree days 1465 1054  
Moisture  
Dew Point 28 °F    
Average Humidity 60    
Maximum Humidity 83    
Minimum Humidity 36    
Precipitation  
Precipitation 0.00 in 0.10 in 1.45 in (1984)
Month to date precipitation 0.02 1.20  
Year to date precipitation 40.38 35.99  
Snow  
Snow 0.00 in 0.00 in T in (1987)
Month to date snowfall 0.0 0.0  
Since 1 July snowfall T 0.0  
Since 1 September snowfall T 0.0  
Snow Depth 0.00 in    
Sea Level Pressure  
Sea Level Pressure 29.85 in    
Wind  
Wind Speed 15 mph (West)    
Max Wind Speed 28 mph    
Max Gust Speed 36 mph    
Visibility 10 miles    
Events      
T = Trace of Precipitation, MM = Missing Value Source: NWS Daily Summary

Daily Weather History Graph

Daily Weather History Graph

Search for Another Location

Airport or City:

Trip Planner

Search our weather history database for the weather conditions in past years. The results will help you decide how hot, cold, wet, or windy it might be!

Date:

Astronomy

Nov. 11, 2011 Rise Set
Actual Time 6:37 AM EST 4:46 PM EST
Civil Twilight 6:08 AM EST 5:15 PM EST
Nautical Twilight 5:36 AM EST 5:47 PM EST
Astronomical Twilight 5:05 AM EST 6:19 PM EST
Moon 5:14 PM EST (11/11) 7:23 AM EST (11/11)
Length of Visible Light 11h 06m
Length of Day
10h 09m
Full, 99% of the Moon is Illuminated
Nov 11
Full
Nov 18
Last Quarter
Nov 25
New
Dec 2
First Quarter
Dec 10
Full

Hourly Weather History & Observations

Time (EST) Temp. Windchill Dew Point Humidity Pressure Visibility Wind Dir Wind Speed Gust Speed Precip Events Conditions
12:04 AM 44.6 °F 38.4 °F 39.2 °F 81% 29.69 in 10.0 mi WNW 12.7 mph 21.9 mph N/A   Overcast
12:14 AM 44.6 °F 37.4 °F 39.2 °F 81% 29.70 in 10.0 mi WNW 16.1 mph - N/A   Overcast
12:54 AM 45.0 °F 37.6 °F 37.0 °F 74% 29.68 in 10.0 mi NW 17.3 mph - N/A   Overcast
1:54 AM 46.0 °F 39.9 °F 35.1 °F 66% 29.68 in 10.0 mi WNW 13.8 mph - N/A   Mostly Cloudy
2:54 AM 45.0 °F 39.3 °F 34.0 °F 65% 29.69 in 10.0 mi WNW 11.5 mph - N/A   Clear
3:54 AM 45.0 °F 38.2 °F 32.0 °F 60% 29.70 in 10.0 mi WNW 15.0 mph - N/A   Clear
4:54 AM 43.0 °F 35.7 °F 30.9 °F 62% 29.72 in 10.0 mi West 15.0 mph 21.9 mph N/A   Clear
5:54 AM 42.1 °F 34.2 °F 30.0 °F 62% 29.74 in 10.0 mi WNW 16.1 mph 24.2 mph N/A   Partly Cloudy
6:54 AM 41.0 °F 33.5 °F 28.9 °F 62% 29.76 in 10.0 mi WNW 13.8 mph 21.9 mph N/A   Clear
7:54 AM 43.0 °F 35.7 °F 27.0 °F 53% 29.78 in 10.0 mi WNW 15.0 mph 25.3 mph N/A   Clear
8:54 AM 44.1 °F 35.2 °F 25.0 °F 47% 29.79 in 10.0 mi WNW 23.0 mph 31.1 mph N/A   Clear
9:54 AM 46.0 °F 38.3 °F 25.0 °F 44% 29.80 in 10.0 mi West 20.7 mph 29.9 mph N/A   Clear
10:54 AM 48.0 °F - 25.0 °F 41% 29.81 in 10.0 mi WNW 23.0 mph 32.2 mph N/A   Clear
11:54 AM 48.0 °F - 25.0 °F 41% 29.80 in 10.0 mi WNW 21.9 mph 31.1 mph N/A   Scattered Clouds
12:54 PM 48.9 °F - 25.0 °F 39% 29.81 in 10.0 mi WNW 21.9 mph 29.9 mph N/A   Mostly Cloudy
1:54 PM 48.9 °F - 24.1 °F 38% 29.84 in 10.0 mi WNW 20.7 mph 26.5 mph N/A   Overcast
2:54 PM 48.9 °F - 24.1 °F 38% 29.86 in 10.0 mi WNW 17.3 mph 26.5 mph N/A   Mostly Cloudy
3:54 PM 48.0 °F - 23.0 °F 37% 29.90 in 10.0 mi WNW 15.0 mph 27.6 mph N/A   Clear
4:54 PM 46.0 °F 39.9 °F 25.0 °F 44% 29.93 in 10.0 mi WNW 13.8 mph 23.0 mph N/A   Mostly Cloudy
5:54 PM 45.0 °F 40.1 °F 25.0 °F 46% 29.96 in 10.0 mi West 9.2 mph - N/A   Clear
6:54 PM 44.1 °F 40.1 °F 25.0 °F 47% 30.00 in 10.0 mi WSW 6.9 mph - N/A   Clear
7:54 PM 43.0 °F 36.8 °F 25.0 °F 49% 30.02 in 10.0 mi West 11.5 mph - N/A   Clear
8:54 PM 42.1 °F 36.6 °F 25.0 °F 51% 30.05 in 10.0 mi West 9.2 mph - N/A   Clear
9:54 PM 39.9 °F 35.1 °F 26.1 °F 58% 30.08 in 10.0 mi WSW 6.9 mph - N/A   Clear
10:54 PM 39.0 °F 34.0 °F 27.0 °F 62% 30.10 in 10.0 mi SW 6.9 mph - N/A   Clear
11:54 PM 39.0 °F 34.0 °F 28.0 °F 65% 30.11 in 10.0 mi SW 6.9 mph - N/A   Clear